Regional Weather Roundup
Issued by NWS

Home | Current Version | Previous Version | Graphics & Text | Print | Product List | Glossary On
Versions: 1 2 3 4 5 6 7 8 9 10 11 12 13 14 15 16 17 18 19 20 21 22 23 24 25 26 27 28 29 30 31 32 33 34 35 36 37 38 39 40 41 42 43 44 45 46 47 48 49 50
000
ASUS43 KOAX 201202
RWRNE

WEATHER ROUNDUP FOR NEBRASKA
NATIONAL WEATHER SERVICE OMAHA NE
700 AM CDT SUN AUG 20 2017

NOTES: SATELLITE DATA IS BEING USED TO AUGMENT CLOUD COVER ABOVE
       12000 FEET.
       "FAIR" INDICATES FEW OR NO CLOUDS BELOW 12,000 FEET WITH NO
       SIGNIFICANT WEATHER AND/OR OBSTRUCTIONS TO VISIBILITY.


NEZ001>004-019>022-054>056-201300-
NEBRASKA PANHANDLE

CITY           SKY/WX    TMP DP  RH WIND       PRES   REMARKS
SCOTTSBLUFF    CLEAR     55  44  66 N8        30.01R
6HR MIN TEMP:  53; 6HR MAX TEMP:  64;

ALLIANCE       CLEAR     53  47  79 NE9       29.99R
6HR MIN TEMP:  53; 6HR MAX TEMP:  61;

CHADRON        CLEAR     50  46  86 CALM      30.02R
6HR MIN TEMP:  50; 6HR MAX TEMP:  65;

GORDON         FAIR      62  53  71 E10       30.01R
6HR MIN TEMP:  56; 6HR MAX TEMP:  64;

SIDNEY         CLEAR     54  46  74 NW12      29.99R
6HR MIN TEMP:  51; 6HR MAX TEMP:  64;

$$

NEZ057>060-069>072-079>082-201300-
SOUTHWEST NEBRASKA

CITY           SKY/WX    TMP DP  RH WIND       PRES   REMARKS
NORTH PLATTE   CLEAR     61  60  97 CALM      29.89R FOG
6HR MIN TEMP:  59; 6HR MAX TEMP:  70;

IMPERIAL       CLEAR     62  55  77 VRB3      29.93R
6HR MIN TEMP:  59; 6HR MAX TEMP:  71;

LEXINGTON      CLEAR     64  62  93 SE7       29.89R
MCCOOK         CLEAR     64  56  75 W7        29.86F
6HR MIN TEMP:  63; 6HR MAX TEMP:  76;

OGALLALA       CLEAR     57  56  95 CALM      29.93R
$$

NEZ005>010-023>029-035>040-094-201300-
NORTH CENTRAL NEBRASKA

CITY           SKY/WX    TMP DP  RH WIND       PRES   REMARKS
VALENTINE      CLEAR     67  62  84 NE8       29.97R
6HR MIN TEMP:  63; 6HR MAX TEMP:  70;

AINSWORTH      CLEAR     62  61  97 NE5       29.95S
BROKEN BOW     CLEAR     62  59  90 E7        29.90R
6HR MIN TEMP:  62; 6HR MAX TEMP:  70;

O`NEILL        CLEAR     67  57  69 SW6       29.95R
ORD            CLEAR     62  57  83 CALM      29.90R
6HR MIN TEMP:  60; 6HR MAX TEMP:  70; 6HR PCP:  0.02;

THEDFORD       CLEAR     61  59  91 CALM      29.96R
$$

NEZ041-046>049-061>064-073>077-083>087-201300-
SOUTH CENTRAL NEBRASKA

CITY           SKY/WX    TMP DP  RH WIND       PRES   REMARKS
GRAND ISLAND   CLEAR     65  61  87 SE14G20   29.90R
6HR MIN TEMP:  64; 6HR MAX TEMP:  71; 6HR PCP: TRACE;

AURORA         CLEAR     67  61  80 S10       29.89F
HASTINGS       CLEAR     65  60  84 SE14      29.91R
6HR MIN TEMP:  64; 6HR MAX TEMP:  67; 6HR PCP:  0.05;

HEBRON         CLEAR     65  63  92 E5        29.93S
HOLDREGE       CLEAR     64  62  92 SE6       29.89R
KEARNEY        CLEAR     64  63  96 SE9       29.90R
$$

NEZ011>018-030>034-042>045-201300-
NORTHEAST NEBRASKA

CITY           SKY/WX    TMP DP  RH WIND       PRES   REMARKS
NORFOLK        CLEAR     63  60  90 CALM      29.88R
6HR MIN TEMP:  63; 6HR MAX TEMP:  77;

ALBION         CLEAR     63  60  89 CALM      29.90R
BLAIR          RAIN      69  64  85 S7        29.89F
COLUMBUS       MOCLDY    61  60  97 NE3       29.87F
FREMONT        CLOUDY    67  62  83 CALM      29.88S
TEKAMAH        CLOUDY    65  63  93 S5        29.89R
6HR MIN TEMP:  65; 6HR MAX TEMP:  71; 6HR PCP:  0.21;

WAYNE          CLEAR     61  58  91 E6        29.88R
$$

NEZ050>053-065>068-078-088>093-201300-
SOUTHEAST NEBRASKA

CITY           SKY/WX    TMP DP  RH WIND       PRES   REMARKS
LINCOLN        MOCLDY    66  63  90 S9        29.88R
6HR MIN TEMP:  65; 6HR MAX TEMP:  72; 6HR PCP:  1.88;

OMAHA EPPLEY   CLOUDY    70  65  84 S3        29.91R
6HR MIN TEMP:  69; 6HR MAX TEMP:  75; 6HR PCP:  0.52;

BEATRICE       PTCLDY    68  62  79 S6        29.91F
FALLS CITY     MOCLDY    68  66  93 SW3       29.98R
6HR MIN TEMP:  67; 6HR MAX TEMP:  75; 6HR PCP:  0.30;

NEBRASKA CITY  CLOUDY    67  67 100 CALM      29.90F
PLATTSMOUTH    CLOUDY    68  62  80 NW13G24   29.91R
$$

NEZ044-045-051>053-067-201300-
OMAHA AREA

CITY           SKY/WX    TMP DP  RH WIND       PRES   REMARKS
OMAHA EPPLEY   CLOUDY    70  65  84 S3        29.91R
6HR MIN TEMP:  69; 6HR MAX TEMP:  75; 6HR PCP:  0.52;

BLAIR          RAIN      69  64  85 S7        29.89F
FREMONT        CLOUDY    67  62  83 CALM      29.88S
MILLARD        CLOUDY    70  64  83 CALM      29.88F
OFFUTT AFB     CLOUDY    69  63  82 NE13      29.90R
PLATTSMOUTH    CLOUDY    68  62  80 NW13G24   29.91R
WAHOO          FAIR      66  63  89 CALM      29.86F
$$




USA.gov is the U.S. government's official web portal to all federal, state and local government web resources and services.